ATLAS 5 CENTAUR DEB, 44845

Orbit data source: Space-Track

ATLAS 5 CENTAUR DEB, 44845 is space debris in HEO originally from a launch on Wed, 17 Sep 2014 UTC launched from the Air Force Eastern Test Range (AFETR). Debris objects in space refer to the collection of defunct objects orbiting the Earth. Examples of debris include non-operational satellites, rocket bodies, and fragments generated from explosions, collisions, or faulty payload assembly.

Loading next visibility...
Identifier
44845, 2014-055CD
Orbit
HEO
Last TLE update
2 days ago
Origin
Flag of USUnited Launch Alliance/Lockheed Martin (US)
Manufacturer
Unknown
Mission
Spacecraft
Bus & Motor
Unknown
Mass
Unknown
Launch date (UTC)
2014-09-17 (11 years ago)
Launch vehicle
Unknown
Launch site
Air Force Eastern Test Range (AFETR)
Object type
Payload
Rocket body
Debris
Shape & HBR
Unknown
Radar Cross Section
Small (<0.1 m²)

Expand to show TLE details & history

TLE from 2 days ago
0 ATLAS 5 CENTAUR DEB
1 44845U 14055CD  25198.39398643 -.00000039  00000-0  00000+0 0  9992
2 44845  19.8119 161.3279 5086329 132.7156 283.1647  1.84918904 38223
Epoch: 2025-07-17T09:27Z
TLE epoch observation values (Epoch: 2025-07-17T09:27:20.427Z)
Latitude
0.00001°
Longitude
83.97663°
Altitude
25,356.553 km
Speed
3.302 km/s
True Right ascension
10h 45m 05s
True Declination
0° 00' 00"
Sunlit
Object was in daylight at epoch
Visualization orbit readout
Latitude
-3.70777°
Longitude
73.46338°
Altitude
28,943.391 km
Speed
2.89 km/s
Apparent Right ascension
09h 41m 35s
Apparent Declination
-11° 24' 46"
Sunlit
Object is in daylight
Visualization observer readout
Local Sidereal Time
12:30:34
Azimuth
226.869° WSW
Elevation
25.44°
Doppler factor
1
Orbital elements
Apogee altitude
35,924.07 km
Perigee altitude
7,399.842 km
Semi-major axis
28,040.093 km
Eccentricity
0.50863
Inclination
19.8119°
RAAN
161.3279°
Arg. of periapsis
132.7156°
True anomaly
227.30906°
Mean anomaly
283.1647°
Eccentric anomaly
255.01342°
Mean motion
0.46225 °/min
Orbital period
778.8 mins
BSTAR
0
Loading maneuver chart data...
Loading SW <> Apogee altitude chart data...
|